Location: *
(46.1200°N, 11.2700°E)
Time: 11:08:53
(UTC+00:00)

GP-B - Pass Details

Date: 02 March 2021
Orbit: 631 x 635 km, 89.8° (Epoch: 17 April)

Event Time Altitude Azimuth Distance (km) Brightness Sun altitude
Rises 18:59:48 0° 190° (S) 2,916 6.5 -21.0°
Reaches altitude 10° 19:02:04 10° 195° (SSW) 2,014 5.7 -21.3°
Maximum altitude 19:06:23 52° 272° (W) 794 3.9 -22.1°
Drops below altitude 10° 19:10:45 10° 349° (N) 2,031 6.0 -22.8°
Sets 19:13:02 0° 354° (N) 2,945 6.8 -23.2°
